IRIDIUM 33 DEB

Satellite information

Favourite Embed

Satellite Type and Status

DEBRISIN ORBIT

Key statistics

Satellite IRIDIUM 33 DEB at a glance.

Uptime

10278

Days in orbit

Revolutions

≈ 14.5

Per day

Orbit

LEO

Low Earth Orbit

Inclination

86.3

Latest

Satellite identification and parameters

Extended collection of information and parameters for IRIDIUM 33 DEB.

Object identification

Identified? True

Debris? True

Object name: IRIDIUM 33 DEB

International designator: 1997-051QQ

Object number (NORAD): 35618

Object ID (CCSDS): 35618

Country: UNITED STATES OF AMERICA (US)

Current information (Y/N): Y

RCS size: SMALL

Orbital parameters

Period: 99.171 minutes

Inclination: 86.3442 deg

SMA: 7097.136 km

Apoapsis: 739.761 km

Periapsis: 698.241 km

RAAN: 14.3862 deg

Eccentricy: 0.0029251

Argument of periapsis: 174.276 deg

Mean anomaly: 185.8786 deg

Mean motion: 14.52038359 rev/day

Mean motion (dot): 0.00002748 rev/day2

B* drag term: 0.00067121 1/REarth

Two-line elements (TLE)

Creation date: Oct. 26, 2025, 6:46 a.m.

Reference frame: TEME

Reference center: EARTH

Epoch: Oct. 25, 2025, 10:35 p.m. UTC

TLE line 0: 0 IRIDIUM 33 DEB

TLE line 1: 1 35618U 97051QQ 25298.94149942 .00002748 00000-0 67121-3 0 9994

TLE line 2: 2 35618 86.3442 14.3862 0029251 174.2760 185.8786 14.52038359647002

Live tracking on map

Real-time ground track for satellite IRIDIUM 33 DEB.

In-orbit conjunctions

A list of the most updated potential collisions computed for object IRIDIUM 33 DEB.

Target Orbit TCA Probability of collision Miss distance Type
CZ-2C DEB SSO 2024-10-02 12:51:35 0.0001809955 28.0 (m) DEBRIS
ISIS 1 HEO 2024-05-31 20:26:10 0.0001022763 268.0 (m) PAYLOAD

Associated space launch

Iridium provides global mobile telecommunications services using a constellation of 66 low earth orbit satellites in a 86.4° inclined orbit. Although 77 satellites were originally envisioned for the system and spawned the name based on the 77th element in the periodic table, the system has been scaled back. Motorola's Satellite Communications Group designed and manufactured the Iridium satellites with Lockheed Martin providing the LM-700A spacecraft buses.

IRIDIUM 33 DEB was lifted into orbit during the mission ‘Proton-K/17S40 | Iridium 27 to 33’, on board a Proton-K/17S40 space rocket.

The launch took place on Sept. 14, 1997, 1:36 a.m. from 81/23 (81L).

For more information about the launch, click the button.

Launch to space Proton-K/17S40 | Iridium 27 to 33
Proton-K/17S40 | Iridium 27 to 33

Agency: N/A

Status: Launch Successful

Launch date: Sept. 14, 1997, 1:36 a.m. UTC

Rocket: Proton-K/17S40

Launch pad: 81/23 (81L)

Location: Baikonur Cosmodrome, Republic of Kazakhstan

...

Latest news about this satellite

There are no fresh news available about this satellite. Check back as we update our databases every day.


Newsletter sign-up

Weekly statistics, charts and insights to help you stay on top of the space industry.